Theta_e
313 314 316 315 315 315 308 303 310 294 292 299 303 309 306 305 301 295 296 296 300 301 297 295 295 297 300 291 291 294 292 292 293 291 281 278 282 287 290 300 294 290 290 297
312 312 313 315 315 312 305 303 298 292 294 307 301 299 301 299 296 296 296 298 297 297 298 302 295 295 291 290 291 292 291 293 294 297 286 281 282 280 284 288 294 298 296 296
312 312 312 313 314 312 308 300 304 294 293 295 304 305 303 301 296 297 297 298 294 294 295 296 306 295 291 290 291 294 294 291 293 306 296 285 285 285 287 292 295 293 296 294
313 312 311 312 313 313 308 303 305 299 297 297 298 303 307 304 303 294 294 294 295 295 299 293 294 292 290 290 291 292 293 292 287 289 290 290 290 284 286 289 292 295 290 293
311 312 313 313 312 313 307 303 302 296 300 297 299 303 305 306 303 296 296 297 296 294 302 301 299 293 292 293 290 291 291 292 285 286 289 291 292 291 290 289 290 291 292 293
310 311 311 311 312 313 304 298 297 302 302 298 300 303 306 306 305 297 297 296 297 295 295 293 292 293 292 294 290 290 290 289 288 291 286 287 288 285 287 283 269 285 290 283
308 309 309 310 310 312 308 301 298 301 305 300 300 299 300 300 300 298 290 293 295 290 289 290 289 288 289 290 287 289 290 290 291 290 288 289 279 270 276 275 270 264 270 266
307 308 309 309 310 309 305 298 299 299 292 285 290 289 291 290 288 287 287 287 287 289 290 291 291 288 288 285 281 284 285 290 289 290 288 286 274 273 274 276 276 263 267 264
308 308 308 309 310 310 304 293 293 291 289 277 275 281 286 290 287 287 286 285 285 288 291 292 293 294 288 285 280 279 284 285 290 287 288 288 276 271 264 266 276 264 265 266
302 307 309 309 310 307 302 284 287 280 275 274 275 277 279 281 286 286 286 285 287 286 289 291 290 289 283 287 283 280 282 284 285 287 288 285 274 271 268 276 275 269 266 267
295 297 298 298 291 293 299 277 281 278 274 274 274 274 274 277 279 286 283 286 285 286 288 290 287 287 281 282 278 279 283 283 282 280 281 285 272 272 275 272 263 266 268 268
291 291 290 291 293 291 289 277 276 277 275 274 274 273 273 273 275 277 281 282 282 281 284 283 284 283 280 278 283 272 280 275 278 277 278 268 267 268 265 260 266 267 266 268
288 287 286 286 287 290 287 277 278 277 275 273 273 273 273 274 275 277 281 280 279 278 275 280 279 279 276 280 278 274 270 264 270 274 272 268 267 268 266 264 265 267 267 267
287 286 285 284 283 282 283 279 279 277 276 274 273 272 272 272 275 276 277 277 275 275 274 274 275 276 272 273 270 272 267 266 265 268 269 268 265 265 266 268 268 267 268 268
284 283 282 282 281 280 279 277 276 277 278 275 274 273 271 272 272 272 273 273 273 272 272 271 269 269 269 266 267 266 264 269 269 271 270 269 272 265 262 264 267 268 268 268
282 282 282 283 282 280 281 280 278 276 277 276 273 272 271 270 272 271 271 271 270 268 268 265 262 260 265 265 266 268 263 259 263 272 261 260 263 260 262 262 266 267 267 267
281 280 279 278 278 279 276 276 276 276 275 275 274 273 271 268 270 270 270 269 267 266 262 263 262 263 264 257 264 268 263 265 263 263 261 268 266 270 271 268 267 266 265 265
280 279 278 278 277 277 274 273 274 275 272 272 271 271 271 268 269 268 266 266 264 264 258 259 260 262 260 263 264 264 267 267 266 268 267 267 269 266 267 268 268 268 268 268
278 278 278 278 275 274 274 274 273 273 271 265 265 265 267 266 267 263 264 263 266 266 263 261 266 262 264 267 265 270 271 272 273 273 272 271 270 270 271 271 271 270 270 270
278 279 277 272 272 273 273 273 270 267 267 265 262 264 264 264 266 265 262 259 261 261 262 264 262 261 260 264 267 269 270 272 273 272 273 273 273 272 272 271 271 271 271 271
278 273 271 273 273 273 269 267 267 265 263 265 264 262 262 265 262 259 256 257 258 262 264 264 261 265 267 272 271 274 275 274 275 274 274 274 274 273 273 272 272 272 272 272
275 275 273 273 270 269 269 263 265 263 263 264 262 264 263 264 262 260 258 259 259 266 262 263 268 271 272 276 276 275 275 274 273 273 272 272 272 272 271 271 271 272 272 271
276 273 266 269 265 269 265 264 265 264 264 263 264 263 263 264 265 255 258 263 262 262 263 267 271 274 277 275 274 273 272 272 272 272 272 271 270 270 270 270 271 270 270 270
267 267 268 265 265 263 260 261 262 264 263 265 263 259 263 263 261 256 264 262 261 267 274 275 277 276 274 273 272 271 271 271 271 271 270 269 269 269 269 268 268 268 268 268
264 267 266 266 265 264 263 263 264 265 264 264 262 260 263 261 262 264 266 270 269 270 275 277 276 274 273 271 271 270 270 270 269 269 268 268 269 268 267 266 266 267 266 266
265 264 265 266 265 266 264 264 264 266 264 263 262 259 264 264 260 269 265 268 272 277 277 276 274 273 272 270 270 270 270 268 267 267 267 268 268 267 266 266 265 266 266 265
267 265 266 264 264 265 264 265 266 266 264 262 260 270 266 263 268 271 273 275 277 276 274 274 273 272 271 269 269 269 268 267 267 267 266 267 266 267 266 265 265 266 265 264
Wind_Speed
30 30 30 28 23 28 31 11 4 7 17 3 2 8 7 6 6 3 6 3 7 8 9 6 6 9 7 7 8 8 5 4 4 9 1 1 2 6 5 4 5 2 1 7
30 29 29 30 24 28 12 4 2 2 5 5 4 4 4 6 7 7 7 6 7 5 8 4 7 5 2 6 6 7 7 1 2 5 4 4 2 4 3 2 3 10 4 7
29 28 29 28 24 31 17 3 3 2 1 0 4 7 5 5 3 4 5 5 4 4 6 5 5 5 2 5 4 5 7 4 7 12 4 5 4 5 5 7 5 4 18 9
28 28 29 27 23 29 22 3 3 4 4 5 6 5 8 7 7 4 6 3 12 8 5 2 6 4 3 2 5 3 3 7 5 3 4 4 6 6 10 14 19 11 9 17
25 27 26 26 24 26 17 5 4 2 1 2 15 10 9 13 4 9 6 11 7 7 9 9 6 6 4 4 2 4 1 2 3 4 4 8 15 14 14 16 17 17 16 20
25 25 23 24 24 27 7 4 2 3 5 4 5 5 13 15 12 5 1 11 6 6 7 4 4 3 3 4 7 5 5 5 3 5 2 3 11 8 13 4 1 8 13 5
26 24 23 24 23 25 24 9 6 3 3 6 5 2 3 2 2 4 4 3 3 3 10 9 6 7 7 5 5 2 5 6 4 1 3 4 3 2 1 2 4 2 1 2
25 25 24 23 22 14 14 6 4 4 3 2 4 7 4 3 6 4 4 4 4 4 3 2 2 2 1 2 4 4 3 3 3 3 4 7 3 2 3 4 5 3 4 2
25 26 25 24 21 17 21 12 8 4 6 3 4 4 3 2 2 2 4 3 7 3 1 2 4 3 1 2 4 2 1 2 3 3 4 6 3 2 3 2 4 4 3 4
7 11 15 21 17 18 22 11 12 12 5 6 4 3 3 3 2 3 3 2 2 3 1 1 2 2 1 2 2 1 2 1 4 5 5 2 2 3 2 4 3 4 4 4
15 10 9 12 17 22 21 17 6 11 4 9 13 6 6 5 4 2 1 1 2 1 2 1 1 1 1 1 2 2 1 1 2 1 2 6 4 4 4 4 2 3 4 5
25 23 23 20 15 18 21 14 25 32 11 5 11 21 23 9 5 3 3 2 3 2 2 2 2 1 1 1 1 0 2 1 2 4 3 3 5 5 3 4 4 4 4 8
30 32 33 31 25 16 37 29 19 22 7 9 9 7 21 27 15 3 1 2 2 3 2 2 2 4 1 1 0 2 1 1 1 5 2 4 6 5 5 6 8 8 10 11
34 35 36 37 38 35 32 25 17 13 10 5 3 17 17 21 20 17 11 7 7 5 3 3 3 2 2 1 1 1 1 1 1 6 8 7 5 6 9 11 10 9 13 14
27 30 34 37 41 45 47 42 27 12 7 4 4 3 21 23 26 28 23 16 5 3 3 4 2 1 1 1 1 2 4 5 2 5 7 7 11 6 3 6 10 13 14 14
29 26 18 7 3 1 6 4 25 21 12 5 3 2 13 22 19 22 22 13 5 3 3 2 1 1 2 2 1 5 5 4 4 8 2 4 11 9 11 9 16 21 17 19
28 33 39 41 31 28 15 4 13 7 6 4 4 3 7 15 8 6 6 11 3 3 2 2 2 2 3 2 2 6 5 7 7 8 2 11 6 13 12 14 22 24 23 25
15 17 23 25 18 20 25 33 12 10 14 9 4 2 3 15 5 4 10 4 3 5 2 1 2 1 1 1 5 6 7 8 8 10 9 11 20 17 19 24 22 16 15 16
11 8 10 5 15 10 10 10 18 33 15 4 4 3 3 11 4 2 3 2 3 1 2 2 1 2 1 5 5 7 10 10 16 17 14 15 16 17 16 15 13 15 15 14
8 4 8 4 9 13 7 5 5 7 10 5 3 1 3 3 3 4 3 2 2 2 2 1 2 3 5 7 8 11 13 14 15 16 18 19 19 17 18 17 16 16 16 22
6 8 2 5 9 6 8 5 6 5 5 4 3 1 2 4 2 2 2 1 2 3 3 2 3 3 4 6 10 12 17 19 18 18 20 20 17 17 17 17 21 22 23 20
9 11 7 7 10 5 9 4 4 6 1 4 3 3 1 3 2 3 3 1 2 2 3 3 3 3 6 18 17 18 24 24 21 22 20 22 22 24 23 22 23 24 25 26
6 8 6 5 6 16 8 8 5 4 4 3 4 4 3 3 3 2 3 5 2 2 3 1 3 6 14 17 16 17 26 24 23 23 22 24 25 26 24 23 25 26 25 25
5 6 11 5 6 3 2 3 3 3 2 4 2 2 2 2 4 0 4 2 2 4 5 3 8 14 17 13 18 13 17 23 23 21 25 24 24 24 22 24 26 24 24 26
5 6 6 5 3 3 3 2 3 3 2 2 2 2 1 2 3 2 2 7 5 1 5 9 10 17 15 15 15 15 18 20 21 24 23 24 23 21 22 28 24 23 23 25
5 8 4 1 1 3 2 1 3 2 2 1 1 1 4 5 1 6 1 1 3 9 8 11 12 15 12 14 20 22 22 24 22 24 24 23 23 20 22 26 25 25 22 24
6 3 1 1 1 3 2 2 3 8 1 2 1 6 3 2 4 5 2 3 8 10 10 9 12 12 12 21 19 23 22 22 22 25 26 23 26 23 23 23 27 27 25 24
Wind_Direction
280 277 273 267 266 236 201 154 220 144 169 171 240 205 184 201 189 151 206 220 215 195 188 199 235 216 219 165 155 163 195 154 204 213 186 174 155 205 167 174 228 234 105 273
282 280 278 274 256 216 184 158 118 138 287 195 203 268 228 213 168 189 174 217 214 205 191 218 202 205 36 152 164 166 187 209 320 301 359 9 195 222 166 126 91 219 178 253
278 279 280 279 263 221 193 125 170 93 248 338 240 192 225 219 205 178 171 172 147 191 214 247 209 227 160 173 187 178 160 166 194 247 179 134 197 205 201 201 221 204 235 259
281 279 274 278 268 223 204 183 209 186 185 235 220 185 186 188 207 212 180 210 214 182 201 245 228 165 143 160 203 111 157 232 195 227 183 190 211 192 190 208 224 218 255 234
286 280 276 273 264 238 208 164 147 250 204 140 200 193 199 200 187 158 220 217 194 184 206 196 177 141 177 181 140 145 163 231 87 289 250 227 261 239 223 218 228 244 255 259
286 284 285 280 272 248 177 163 123 151 168 157 173 213 214 218 187 204 128 213 157 186 223 108 74 48 61 146 160 156 159 142 135 256 37 29 284 239 215 226 34 224 243 256
285 281 282 283 283 251 201 167 145 144 219 185 192 240 180 353 251 140 58 28 116 87 108 92 65 57 62 46 42 22 159 152 179 190 120 250 301 283 3 180 236 196 172 221
290 281 279 280 274 285 211 172 161 144 123 343 55 17 79 67 52 68 76 51 346 127 57 87 99 30 38 48 29 359 350 162 180 207 209 328 9 262 163 144 275 190 145 237
284 278 275 277 266 255 203 107 101 85 123 23 308 322 25 60 52 76 66 43 27 46 88 139 193 212 100 299 345 343 2 330 224 137 219 242 231 261 188 165 278 215 171 209
346 274 267 268 268 221 178 93 118 89 97 9 339 39 358 328 12 72 83 27 55 2 103 136 165 199 339 232 179 209 57 352 250 237 254 279 152 134 144 96 250 180 195 226
53 64 100 115 117 150 159 66 69 102 95 45 43 20 36 341 6 47 31 151 15 62 100 96 93 102 90 52 29 40 222 210 232 81 278 274 155 123 167 209 255 205 216 232
65 69 72 77 82 99 95 75 86 92 88 123 85 53 37 20 320 315 28 63 39 41 93 61 102 104 73 45 301 313 249 275 240 200 244 248 237 214 228 171 205 241 217 239
69 69 73 78 83 101 112 105 93 85 98 66 47 2 8 30 25 27 67 74 63 63 10 83 85 95 320 151 172 305 141 164 229 354 286 240 240 255 239 206 226 240 236 246
70 73 78 81 83 88 91 79 80 82 99 89 24 39 37 23 49 57 64 103 79 82 41 71 71 92 346 111 116 200 192 91 203 267 281 295 276 226 241 247 243 248 247 245
70 73 77 82 84 82 78 70 59 74 104 116 144 1 17 35 39 48 54 61 58 32 53 43 77 60 86 11 95 288 185 189 151 250 247 240 279 252 283 250 265 270 273 275
62 60 60 64 78 83 58 70 40 41 89 108 85 122 12 11 26 34 33 35 52 70 83 102 59 253 99 92 191 256 219 227 208 264 313 234 287 285 266 267 273 269 269 268
67 66 66 66 73 82 59 54 320 0 62 87 108 58 18 353 14 26 10 30 54 70 105 60 105 30 53 87 193 254 257 245 264 252 343 292 237 288 290 267 277 280 276 274
50 57 62 63 73 72 48 32 44 73 90 54 75 18 37 8 6 357 6 7 27 23 132 26 55 356 59 293 284 296 283 287 285 273 226 253 285 294 286 285 287 285 280 275
19 18 28 33 30 42 353 354 40 58 61 90 62 31 312 353 18 23 349 2 51 258 58 15 353 330 280 241 262 296 296 293 294 297 290 283 280 282 285 284 282 278 284 279
21 37 33 31 1 329 343 5 24 25 24 40 76 231 326 355 351 360 0 11 42 47 291 321 64 269 257 259 251 260 278 288 297 304 313 313 306 305 304 298 293 288 287 288
36 43 64 351 2 25 35 45 41 352 35 16 342 76 314 3 32 321 56 247 335 51 300 58 333 302 262 286 289 307 311 304 306 311 312 320 323 326 325 324 320 316 313 310
69 101 80 26 27 30 65 23 8 41 35 331 351 323 301 313 65 56 344 87 25 320 300 48 334 253 279 330 352 337 340 354 347 343 337 336 335 330 323 321 319 317 316 314
55 53 47 25 331 39 47 351 348 2 346 357 341 318 348 337 39 39 35 38 276 289 32 298 247 301 345 351 348 359 348 345 340 334 334 336 333 334 330 327 333 335 335 334
56 51 28 63 15 47 189 206 228 271 270 311 331 288 359 319 10 342 45 241 33 14 12 323 331 356 349 358 349 347 341 340 334 345 339 336 335 334 346 349 339 341 340 339
64 48 52 48 223 251 240 242 281 252 270 343 340 338 23 336 30 26 321 9 354 169 326 322 353 349 345 355 347 344 341 346 346 342 340 336 338 341 349 344 341 343 343 341
69 43 63 355 60 312 329 274 272 285 301 332 73 326 35 27 60 25 57 41 281 320 329 342 340 340 351 344 338 342 341 344 338 340 338 336 344 336 339 340 340 335 339 341
52 17 19 85 144 233 279 302 291 323 20 19 51 47 261 291 10 359 183 300 317 338 334 334 335 334 341 335 335 342 345 339 335 340 339 338 343 336 341 345 340 339 342 338